www.pogodaiklimat.ru

Погода и климат >> Архив погоды >> Австралия >> Западная Австралия >> Барроу-Айленд


ПОГОДА в Барроу-Айленд

  • Прогноз погоды в Барроу-Айленд
  • Монитор погоды в Барроу-Айленд

АРХИВ ПОГОДЫ в Барроу-Айленд

Время (UTC), дата Ветер
(напр.,м/с)
 
Видим.   Явления Облачность Т
(С)
Тd
(С)
f
(%)
Тe
(С)
Тes
(С)
Комфортность P
(гПа)
Po
(гПа)
Тmin
(С)
Tmax
(С)
R
(мм)
R24
(мм)
S
(см)
07 14.07 СВ 9 н/о н/о +24.1 +11.1 44 +25 +25 комфорт 1019.9 1019.1
09 14.07 СВ 7 н/о н/о +23.6 +12.0 48 +25 +25 комфорт 1019.8 1019.0
10 14.07 С 6 н/о н/о +21.3 +12.2 56 +23 +23 комфорт 1020.0 1019.2
12 14.07 С 5 н/о н/о +19.6 +11.9 61 +21 +21 комфорт 1020.8 1020.0
13 14.07 СВ 4 н/о н/о +18.1 +11.2 64 +18 +18 1021.1 1020.3 +24.3
15 14.07 Ю 7 н/о н/о +21.4 +17.0 76 +25 +25 комфорт 1021.6 1020.8
16 14.07 Ю 6 н/о н/о +21.0 +16.2 74 +24 +24 комфорт 1021.6 1020.8
18 14.07 Ю 8 н/о н/о +20.7 +15.7 73 +23 +23 комфорт 1021.7 1020.9
19 14.07 ЮВ 8 н/о н/о +20.4 +14.1 67 +22 +22 комфорт 1021.7 1020.9
21 14.07 В 11 н/о н/о +21.7 +7.2 39 +23 +23 комфорт 1021.3 1020.5
22 14.07 В 13 н/о н/о +21.3 +9.2 46 +23 +23 комфорт 1021.5 1020.7
00 15.07 В 12 н/о н/о +21.5 +10.3 49 +23 +23 комфорт 1022.4 1021.6
01 15.07 В 13 н/о н/о +21.6 +8.1 42 +23 +23 комфорт 1022.9 1022.1 +16.9
03 15.07 В 13 н/о н/о +21.9 +8.1 41 +23 +23 комфорт 1022.1 1021.3
04 15.07 В 12 н/о н/о +22.5 +9.3 43 +24 +24 комфорт 1021.4 1020.6
06 15.07 В 10 н/о н/о +22.8 +6.1 34 +23 +23 комфорт 1020.1 1019.3
07 15.07 В 8 н/о н/о +22.7 +10.8 47 +25 +25 комфорт 1019.6 1018.8
09 15.07 СВ 6 н/о н/о +22.0 +10.2 47 +24 +24 комфорт 1019.3 1018.5
10 15.07 СВ 4 н/о н/о +19.7 +10.4 55 +21 +21 комфорт 1019.6 1018.8
12 15.07 СЗ 2 н/о н/о +17.2 +8.4 56 +18 +18 1020.8 1020.0
13 15.07 СЗ 2 н/о н/о +16.4 +8.4 59 +17 +17 1021.1 1020.3 +23.1
15 15.07 Ю 2 н/о н/о +17.0 +12.1 73 +17 +17 1021.7 1020.9
16 15.07 Ю 2 н/о н/о +16.6 +12.4 76 +17 +17 1021.5 1020.7
18 15.07 Ю 3 н/о н/о +18.7 +14.6 77 +20 +20 1021.3 1020.5
19 15.07 Ю 5 н/о н/о +19.4 +14.2 72 +21 +21 комфорт 1021.1 1020.3
21 15.07 ЮВ 7 н/о н/о +19.9 +13.8 68 +21 +21 комфорт 1020.8 1020.0
22 15.07 В 11 н/о н/о +20.6 +7.9 44 +21 +21 комфорт 1021.1 1020.3
00 16.07 В 11 н/о н/о +20.6 +8.3 45 +21 +21 комфорт 1022.3 1021.5
01 16.07 В 13 н/о н/о +21.1 +6.6 39 +22 +22 комфорт 1022.7 1021.9 +15.9
03 16.07 В 11 н/о н/о +21.8 +6.1 36 +22 +22 комфорт 1022.0 1021.2
04 16.07 В 11 н/о н/о +22.1 +5.5 34 +23 +23 комфорт 1021.3 1020.5
06 16.07 СВ 8 н/о н/о +22.6 +8.3 40 +24 +24 комфорт 1019.8 1019.0
07 16.07 СВ 8 н/о н/о +22.8 +7.4 37 +24 +24 комфорт 1019.5 1018.7
09 16.07 СВ 6 н/о н/о +22.3 +7.7 39 +23 +23 комфорт 1019.4 1018.6
10 16.07 С 4 н/о н/о +19.7 +6.4 42 +21 +21 комфорт 1019.3 1018.5
12 16.07 СЗ 3 н/о н/о +16.3 +5.6 49 +16 +16 1020.2 1019.4
13 16.07 штиль 0 н/о н/о +16.6 +5.6 48 +17 +17 1020.6 1019.8 +23.5
15 16.07 Ю 6 н/о н/о +20.0 +13.0 64 +22 +22 комфорт 1020.1 1019.3
16 16.07 Ю 6 н/о н/о +20.0 +12.5 62 +22 +22 комфорт 1019.5 1018.7
18 16.07 Ю 4 н/о н/о +19.3 +13.7 70 +21 +21 комфорт 1018.8 1018.0
19 16.07 Ю 5 н/о н/о +19.5 +13.7 69 +21 +21 комфорт 1018.4 1017.6
21 16.07 ЮВ 7 н/о н/о +19.6 +11.9 61 +21 +21 комфорт 1018.4 1017.6
22 16.07 В 9 н/о н/о +20.5 +8.5 46 +21 +21 комфорт 1018.8 1018.0
00 17.07 В 12 н/о н/о +21.2 +7.8 42 +22 +22 комфорт 1019.7 1018.9
01 17.07 В 12 н/о н/о +21.4 +8.3 43 +23 +23 комфорт 1020.3 1019.5 +15.6
03 17.07 В 13 н/о н/о +21.9 +8.1 41 +23 +23 комфорт 1019.6 1018.8
04 17.07 В 13 н/о н/о +22.5 +9.0 42 +24 +24 комфорт 1019.0 1018.2
06 17.07 В 10 н/о н/о +22.6 +9.7 44 +24 +24 комфорт 1017.6 1016.8
07 17.07 СВ 9 н/о н/о +22.7 +9.8 44 +24 +24 комфорт 1017.1 1016.3
09 17.07 СВ 7 н/о н/о +22.3 +9.1 43 +24 +24 комфорт 1016.8 1016.0
10 17.07 СВ 5 н/о н/о +19.7 +9.0 50 +21 +21 комфорт 1016.8 1016.0
12 17.07 С 3 н/о н/о +16.3 +7.5 56 +16 +16 1017.6 1016.8
13 17.07 З 1 н/о н/о +15.6 +8.6 63 +17 +17 1018.1 1017.3 +23.0
15 17.07 Ю 3 н/о н/о +17.9 +13.4 75 +18 +18 1018.1 1017.3
16 17.07 ЮЗ 2 н/о н/о +17.2 +13.3 78 +18 +18 1017.8 1017.0
18 17.07 Ю 4 н/о н/о +19.1 +15.0 77 +20 +20 1017.7 1016.9
19 17.07 Ю 6 н/о н/о +19.6 +15.3 76 +21 +21 комфорт 1017.5 1016.7
21 17.07 Ю 7 н/о н/о +19.4 +13.8 70 +20 +20 1017.4 1016.6
22 17.07 ЮЗ 7 н/о н/о +19.3 +13.3 68 +20 +20 1017.5 1016.7
00 18.07 ЮВ 5 н/о н/о +19.5 +14.7 74 +21 +21 комфорт 1018.2 1017.4
01 18.07 ЮВ 6 н/о н/о +20.6 +13.8 65 +23 +23 комфорт 1018.6 1017.8 +14.3
03 18.07 В 7 н/о н/о +22.4 +9.6 44 +24 +24 комфорт 1018.0 1017.2
04 18.07 В 8 н/о н/о +22.8 +7.4 37 +24 +24 комфорт 1017.0 1016.2
06 18.07 СВ 6 н/о н/о +23.4 +12.4 50 +26 +26 жарко 1015.5 1014.7
07 18.07 СВ 6 н/о н/о +23.1 +14.4 58 +27 +27 душно 1015.1 1014.3
09 18.07 СВ 8 н/о н/о +23.1 +12.1 50 +26 +26 жарко 1014.7 1013.9
10 18.07 С 5 н/о н/о +20.9 +12.1 57 +23 +23 комфорт 1014.7 1013.9
12 18.07 С 5 н/о н/о +17.9 +12.8 72 +18 +18 1015.5 1014.7
13 18.07 С 5 н/о н/о +17.3 +13.2 77 +17 +17 1015.6 1014.8 +23.9
15 18.07 С 2 н/о н/о +16.4 +13.3 82 +16 +16 1016.0 1015.2
16 18.07 СЗ 3 н/о н/о +19.1 +16.3 84 +21 +21 комфорт 1016.0 1015.2
18 18.07 Ю 6 н/о н/о +19.9 +18.0 89 +23 +23 комфорт 1015.6 1014.8
19 18.07 Ю 6 н/о н/о +19.7 +17.3 86 +22 +22 комфорт 1015.1 1014.3
21 18.07 Ю 5 н/о н/о +19.5 +16.0 80 +21 +21 комфорт 1015.1 1014.3
22 18.07 Ю 5 н/о н/о +19.3 +15.4 78 +21 +21 комфорт 1015.4 1014.6
00 19.07 Ю 5 н/о н/о +20.2 +13.9 67 +22 +22 комфорт 1016.2 1015.4
01 19.07 ЮВ 5 н/о н/о +21.8 +13.4 59 +25 +25 комфорт 1016.6 1015.8 +16.1
03 19.07 ЮВ 4 н/о н/о +22.6 +14.2 59 +26 +26 жарко 1016.4 1015.6
04 19.07 С 2 н/о н/о +22.8 +13.3 55 +26 +26 жарко 1015.7 1014.9
06 19.07 ЮЗ 5 н/о н/о +23.7 +14.7 57 +26 +26 жарко 1014.5 1013.7
07 19.07 ЮЗ 6 н/о н/о +24.3 +12.9 49 +26 +26 жарко 1014.6 1013.8
09 19.07 ЮЗ 6 н/о н/о +23.1 +13.3 54 +26 +26 жарко 1015.0 1014.2
10 19.07 З 5 н/о н/о +21.3 +14.5 65 +24 +24 комфорт 1015.0 1014.2
12 19.07 З 4 н/о н/о +19.6 +13.8 69 +21 +21 комфорт 1015.8 1015.0
13 19.07 З 5 н/о н/о +20.0 +13.9 68 +22 +22 комфорт 1016.5 1015.7 +24.7
15 19.07 ЮЗ 9 н/о н/о +21.5 +15.8 70 +25 +25 комфорт 1016.3 1015.5
16 19.07 ЮЗ 10 н/о н/о +20.9 +16.7 77 +24 +24 комфорт 1016.4 1015.6
18 19.07 ЮЗ 12 н/о н/о +20.2 +15.2 73 +22 +22 комфорт 1016.4 1015.6
19 19.07 Ю 12 н/о н/о +20.0 +15.2 74 +21 +21 комфорт 1016.3 1015.5
21 19.07 Ю 12 н/о н/о +19.4 +14.0 71 +20 +20 1016.3 1015.5
22 19.07 Ю 12 н/о н/о +19.4 +14.2 72 +20 +20 1016.8 1016.0
00 20.07 Ю 10 н/о н/о +19.6 +13.5 68 +20 +20 1017.8 1017.0
01 20.07 Ю 10 н/о н/о +20.2 +13.6 66 +22 +22 комфорт 1018.3 1017.5 +19.1
03 20.07 Ю 11 н/о н/о +21.4 +12.8 58 +24 +24 комфорт 1018.0 1017.2
04 20.07 Ю 10 н/о н/о +21.9 +13.0 57 +25 +25 комфорт 1017.3 1016.5
06 20.07 Ю 9 н/о н/о +22.8 +14.4 59 +26 +26 жарко 1015.8 1015.0
07 20.07 ЮЗ 8 н/о н/о +23.0 +15.3 62 +27 +27 душно 1015.2 1014.4
09 20.07 ЮЗ 7 н/о н/о +22.3 +16.1 68 +26 +26 жарко 1015.4 1014.6
10 20.07 ЮЗ 7 н/о н/о +21.4 +15.9 71 +25 +25 комфорт 1015.3 1014.5
12 20.07 Ю 8 н/о н/о +21.4 +14.8 66 +24 +24 комфорт 1016.5 1015.7
13 20.07 Ю 8 н/о н/о +21.0 +14.6 67 +24 +24 комфорт 1016.7 1015.9 +23.4
15 20.07 Ю 11 н/о н/о +21.0 +12.9 60 +23 +23 комфорт 1016.3 1015.5
16 20.07 Ю 10 н/о н/о +20.6 +12.3 59 +22 +22 комфорт 1016.0 1015.2
18 20.07 Ю 11 н/о н/о +19.6 +10.9 57 +20 +20 1015.4 1014.6
19 20.07 Ю 10 н/о н/о +18.9 +11.0 60 +19 +19 1015.1 1014.3
21 20.07 Ю 9 н/о н/о +18.6 +11.2 62 +18 +18 1015.0 1014.2
22 20.07 Ю 8 н/о н/о +18.6 +11.4 63 +18 +18 1015.1 1014.3
00 21.07 ЮВ 7 н/о н/о +19.3 +12.6 65 +20 +20 1016.3 1015.5
01 21.07 ЮВ 6 н/о н/о +20.7 +12.4 59 +23 +23 комфорт 1017.0 1016.2 +18.5
03 21.07 В 5 н/о н/о +22.0 +12.0 53 +24 +24 комфорт 1017.0 1016.2
04 21.07 В 7 н/о н/о +22.3 +10.8 48 +24 +24 комфорт 1016.5 1015.7

 

Местоположение метеостанции Барроу-Айленд (Западная Австралия, Австралия): широта -20.88 долгота 115.40 высота над уровнем моря 7 м.

В архиве по умолчанию представлена погода в Барроу-Айленд за последнюю неделю. Архивные данные за месяц целиком и за предыдущие месяцы, начиная с января 2011 года, Вы можете получить, выбрав интересующий диапазон дат из раскрывающегося списка и нажав кнопку "Ввод!".


*Определитесь, кто Вы:
робот инопланетянин человек

Внимание! Время в таблицах - всемирное. Для получения местного времени необходимо прибавить поправку, которая равна 8 ч.

Смотрите также архив погоды в соседних городах и на ближайших метеорологических станциях:

Погода на Острове Варанас (Западная Австралия, Австралия) (31 км)
Погода в Марди (Западная Австралия, Австралия) (68 км)
Погода на Острове Тевенард (Западная Австралия, Австралия) (75 км)
Погода в Онслоу (Западная Австралия, Австралия) (93 км)
Погода в Каррате (Западная Австралия, Австралия) (144 км)
Погода в Роборн аэропорту (Западная Австралия, Австралия) (183 км)
Погода в Лермонте (Западная Австралия, Австралия) (203 км)
Погода в Порт-Хедленде Apardoo (Западная Австралия, Австралия) (341 км)
Погода в Параберду (Западная Австралия, Австралия) (352 км)
Погода в Марбл-баре (Западная Австралия, Австралия) (453 км)

Пояснения к столбцам:

Ветер - указаны скорость ветра в м/с - средняя за 10 мин, порывы в срок и между сроками (в фигурных скобках) и направление, откуда дует ветер: С - северный, СВ - северо-восточный, В - восточный, ЮВ - юго-восточный, Ю - южный, ЮЗ - юго-западный, З - западный, СЗ - северо-западный.
Видимость - горизонтальная дальность видимости в метрах или километрах. При видимости от 1 до 10 км при отсутствии осадков обычно наблюдается дымка, при ухудшении видимости до 1 км и менее - туман. В сухую погоду видимость может ухудшаться дымом, пылью или мглою.
Явления - указаны атмосферные явления, наблюдавшиеся в срок или в последний час перед сроком; фигурными скобками обозначены явления, наблюдавшиеся между сроками (за 1-3 часа до срока); квадратными скобками обозначены град или гололедные отложения с указанием их диаметра в мм.
Облачность - указаны через наклонную черту общая и нижняя облачность в баллах и высота нижней границы облаков в метрах; квадратными скобками обозначены формы облаков: Ci - перистые, Cs - перисто-слоистые, Cc - перисто-кучевые, Ac - высококучевые, As - высокослоистые, Sc - слоисто-кучевые, Ns - слоисто-дождевые, Cu - кучевые, Cb - кучево-дождевые. Подробнее классификацию облаков см. в Атласе облаков (PDF).
T - Температура воздуха - температура, измеренная на высоте 2 м над землей.
Td - Температура точки росы - температура, при понижении до которой содержащийся в воздухе водяной пар достигнет насыщения.
f - Относительная влажность воздуха - влажноcть воздуха, измеренная на высоте 2 м над землей.
Te - Эффективная температура - температура, которую ощущает одетый по сезону человек в тени. Характеристика душности погоды. При расчете учитывается влияние влажности воздуха и скорости ветра на теплоощущения человека.
Tes - Эффективная температура на солнце - температура, которую ощущает человек, с поправкой на солнечный нагрев. Характеристика знойности погоды. Зависит от высоты солнца над горизонтом, облачности и скорости ветра. Ночью, в пасмурную погоду, а также при ветре 12 м/с и более поправка равна нулю.
P - Атмосферное давление - приведенное к уровню моря атмосферное давление.
Po - Атмосферное давление - измеренное на уровне метеостанции атмосферное давление.
Tmin - Минимальная температура - минимум температуры воздуха на высоте 2 м над землей.
Tmax - Максимальная температура - максимум температуры воздуха на высоте 2 м над землей.
R - Количество осадков - Количество выпавших осадков за период времени, мм. При наведении курсора мыши на число - период времени, за который выпало указанное количество осадков.
R24 - Количество осадков - Количество выпавших осадков за 24 часа, мм.
S - Снежный покров - Высота снежного покрова, см. При наведении курсора мыши на число - состояние снежного покрова и степень покрытия местности в баллах.